This is the latest recevied weather packets stored in our database for station/object KD8OZS. If no packets are shown the sender has not sent any weather packets the latest 10 day(s).
| Time | Temp. | Humidity | Pressure | Rain* | Wind** | Luminosity | Snow |
|---|---|---|---|---|---|---|---|
| 1778005495 | 19.44° C | 69% | 1000.7 hPa | 0 mm | - | 65 W/m² | - |
| 1778005190 | 19.44° C | 67% | 1000.9 hPa | 0 mm | - | 52 W/m² | - |
| 1778004888 | 19.44° C | 67% | 1000.6 hPa | 0 mm | - | 51 W/m² | - |
| 1778004585 | 20° C | 66% | 1000.9 hPa | 0 mm | - | 85 W/m² | - |
| 1778004281 | 20° C | 67% | 1000.7 hPa | 0 mm | - | 194 W/m² | - |
| 1778003978 | 20.56° C | 66% | 1000.9 hPa | 0 mm | - | 251 W/m² | - |
| 1778003674 | 20.56° C | 67% | 1000.7 hPa | 0 mm | - | 278 W/m² | - |
| 1778003371 | 20° C | 67% | 1000.7 hPa | 0 mm | - | 334 W/m² | - |
| 1778003068 | 19.44° C | 69% | 1000.7 hPa | 0 mm | - | 273 W/m² | - |
| 1778002764 | 19.44° C | 69% | 1000.7 hPa | 0 mm | - | 196 W/m² | - |
| 1778002461 | 19.44° C | 69% | 1001.1 hPa | 0 mm | - | 187 W/m² | - |
| 1778002158 | 19.44° C | 69% | 1001 hPa | 0 mm | - | 174 W/m² | - |
| 1778001856 | 19.44° C | 71% | 1000.9 hPa | 0 mm | - | 216 W/m² | - |
| 1778001555 | 19.44° C | 69% | 1001 hPa | 0 mm | - | 242 W/m² | - |
| 1778001252 | 19.44° C | 69% | 1000.7 hPa | 0 mm | - | 243 W/m² | - |
| 1778000949 | 19.44° C | 68% | 1001 hPa | 0 mm | - | 266 W/m² | - |
| 1778000646 | 18.89° C | 70% | 1001 hPa | 0 mm | - | 272 W/m² | - |
| 1778000341 | 19.44° C | 70% | 1001.3 hPa | 0 mm | - | 131 W/m² | - |
| 1778000037 | 19.44° C | 68% | 1001.2 hPa | 0 mm | - | 175 W/m² | - |
| 1777999733 | 20° C | 68% | 1001.2 hPa | 0 mm | - | 191 W/m² | - |
| 1777999429 | 19.44° C | 67% | 1001.1 hPa | 0 mm | - | 265 W/m² | - |
| 1777999128 | 20° C | 68% | 1001.1 hPa | 0 mm | - | 238 W/m² | - |
| 1777998826 | 20° C | 67% | 1001.1 hPa | 0 mm | - | 268 W/m² | - |
| 1777998524 | 20.56° C | 66% | 1001.2 hPa | 0 mm | - | 274 W/m² | - |
| 1777998220 | 20.56° C | 66% | 1001.1 hPa | 0 mm | - | 307 W/m² | - |
* Rain latest hour (hover to see other rain measurements)
** Current wind speed in m/s (hover to see current wind gust speed)